Wind_Speed
58 63 63 68 67 64 61 61 63 63 66 68 70 69 69 71 70 69 69 71 72 72 72 72 72 73 74 77 74 76 74 71 64 66 62 58 54 50 47 46 46 41 40 36 35 36 35 35 34
31 39 51 62 61 63 63 64 66 68 70 71 72 74 75 72 74 76 74 75 74 75 75 76 75 74 72 67 65 57 53 51 48 45 41 37 38 36 37 36 35 34 34 33 33 31 34 32 34
26 29 32 37 40 45 52 55 54 59 62 66 68 67 67 67 73 67 66 67 68 65 61 56 49 45 42 37 33 30 27 27 27 27 28 27 26 26 26 25 27 28 29 31 31 31 32 33 34
30 31 28 25 25 28 31 31 32 34 42 44 50 54 53 48 43 39 44 45 45 48 41 33 31 28 27 27 23 22 24 24 24 24 25 24 25 26 26 25 26 26 27 29 29 28 29 31 35
35 35 32 27 21 22 23 21 22 28 31 30 29 33 34 36 35 36 39 37 33 27 26 26 28 28 29 27 24 22 23 24 24 25 26 28 30 30 30 30 31 31 30 30 30 30 30 31 32
39 39 35 32 30 29 28 29 30 30 29 29 29 26 28 28 31 28 27 24 23 23 23 26 25 28 30 30 29 29 28 26 25 26 28 30 32 32 33 34 34 34 34 34 33 31 29 32 32
43 42 38 33 32 30 33 34 34 33 32 34 33 27 28 31 33 27 23 25 26 28 29 28 30 31 31 33 32 32 32 30 26 25 27 29 31 31 31 31 32 33 34 35 36 33 32 30 31
43 44 41 37 37 37 37 38 38 37 36 36 33 29 28 26 34 36 32 28 27 30 34 34 33 33 35 35 35 35 34 34 31 30 29 30 29 30 32 32 35 35 35 34 34 34 34 35 34
43 46 44 41 40 41 44 43 41 38 38 40 37 31 26 28 32 37 40 40 39 38 37 39 39 39 40 38 38 37 36 35 34 34 35 37 35 35 35 37 38 38 40 40 39 36 34 35 38
45 49 46 44 45 44 44 46 46 41 40 41 37 40 37 36 35 37 39 43 45 44 46 46 45 44 43 42 40 39 38 38 38 39 41 40 41 43 42 41 41 43 45 46 44 41 39 39 38
44 49 48 49 49 49 48 46 49 49 44 42 38 40 42 43 47 47 49 51 50 48 49 51 53 50 45 41 40 40 42 42 43 45 43 44 41 39 41 46 43 44 45 47 45 44 44 43 43
45 48 46 44 46 47 47 48 48 48 48 44 43 43 44 47 49 50 50 50 50 51 52 53 54 53 49 45 43 42 42 41 44 46 46 43 41 42 45 47 46 50 49 48 48 47 43 42 44
46 49 50 46 46 43 46 48 46 49 47 47 48 47 46 47 48 49 50 51 52 50 52 50 48 48 46 46 47 48 46 43 43 46 44 46 48 50 53 49 51 55 55 53 54 54 49 45 48
54 53 54 54 52 47 47 47 47 47 46 49 50 49 49 49 50 51 53 54 54 52 53 51 50 50 51 53 53 54 55 52 51 50 54 57 58 60 56 59 59 59 58 54 52 51 53 50 45
54 56 54 51 50 52 51 47 50 45 45 45 47 48 49 50 52 54 54 55 55 55 56 54 54 54 56 57 58 59 62 60 60 60 59 61 59 59 57 57 57 57 58 57 56 56 51 50 48
50 51 54 51 50 50 51 50 52 49 48 45 46 47 47 47 50 51 54 57 57 58 58 59 61 62 59 58 63 67 66 67 67 66 67 66 66 64 59 60 62 60 56 54 54 58 53 46 44
53 52 53 52 52 51 51 54 53 53 52 51 52 53 55 55 57 59 60 61 61 62 63 63 64 66 68 68 66 67 69 70 71 72 73 75 73 74 71 67 65 66 64 59 49 49 52 50 40
60 57 57 60 56 52 50 53 54 54 55 56 59 59 60 60 62 63 65 66 68 68 68 69 69 70 71 72 73 74 75 75 77 78 81 81 81 78 79 78 71 63 64 62 60 58 55 53 45
59 62 63 58 55 55 56 58 59 59 60 60 61 63 65 64 64 66 69 73 74 74 74 74 77 80 81 80 80 82 84 85 85 85 82 83 86 85 81 79 76 72 63 57 61 60 59 58 54
60 59 62 62 63 61 61 60 62 63 63 64 62 61 64 69 72 73 76 80 83 85 86 87 88 89 89 90 90 92 92 93 92 92 92 91 88 90 89 86 82 79 75 66 64 67 58 59 50
62 62 65 64 64 64 67 68 66 65 65 66 67 65 69 71 73 74 77 79 82 85 88 90 90 90 90 92 93 94 95 97 99 101 101 99 97 96 95 94 90 87 82 77 74 67 67 63 63
66 69 70 70 71 69 71 71 74 76 76 76 75 76 76 76 78 78 80 83 86 89 89 89 89 90 92 95 99 102 104 105 109 109 109 112 112 107 102 100 97 94 89 84 80 78 70 66 62
70 71 74 74 74 74 73 79 72 77 79 83 87 89 88 88 88 89 91 92 94 95 97 100 102 104 106 106 106 107 108 109 110 113 117 116 114 113 107 102 98 96 96 91 87 83 80 75 68
76 78 79 80 81 78 79 84 75 80 83 87 88 90 94 96 98 100 100 102 103 105 107 107 108 111 113 115 117 118 121 120 120 122 122 123 119 115 108 104 103 100 98 97 93 87 84 80 73
82 83 85 84 84 83 84 86 81 82 85 86 88 89 90 91 95 98 99 103 107 108 111 115 119 122 124 125 126 127 126 124 122 120 119 122 121 118 118 109 103 100 97 98 98 92 89 85 81
87 89 90 92 90 89 90 87 87 89 92 93 92 94 96 98 100 101 104 106 110 112 116 118 120 123 126 125 123 117 107 101 99 99 99 102 109 115 113 112 110 105 100 97 99 98 91 89 86
90 91 94 96 95 95 93 89 90 92 97 96 96 96 99 104 108 109 113 116 116 120 124 119 123 123 113 105 100 101 97 95 94 93 93 95 99 100 105 106 110 112 109 103 99 98 98 92 90
97 98 98 100 102 101 96 92 96 98 102 103 102 103 107 108 113 117 117 114 122 122 121 121 117 103 98 95 94 91 89 88 85 83 84 86 88 89 92 97 101 105 107 107 101 98 100 96 91
103 100 101 105 108 108 106 99 99 103 104 103 104 106 109 112 115 119 120 121 121 122 118 107 100 94 90 87 86 83 80 78 75 73 73 73 73 75 76 79 86 91 96 97 96 93 94 96 94
103 104 106 108 109 111 110 103 107 109 106 104 105 108 112 113 115 114 119 122 120 109 100 96 91 89 86 80 75 70 69 66 64 62 61 62 64 65 64 64 68 72 75 77 79 80 81 89 93
Wind_Direction
261 258 256 256 259 258 259 260 264 266 270 273 273 274 274 274 276 279 281 283 282 281 280 279 280 281 282 283 285 286 286 286 284 286 284 284 284 283 282 282 283 285 284 283 285 286 286 288 289
271 265 261 258 262 261 261 260 261 264 266 269 274 277 277 280 279 277 278 278 282 283 285 284 284 284 283 285 284 284 284 282 282 283 282 281 280 279 281 283 286 287 285 284 284 289 287 286 288
281 275 273 273 273 268 267 268 273 271 269 270 271 274 277 281 280 281 281 280 282 283 287 289 289 286 283 281 279 282 283 283 282 281 284 283 282 286 287 289 289 291 292 293 292 290 288 281 282
285 282 283 285 283 284 276 272 271 272 269 269 273 274 280 282 284 284 284 286 290 293 293 290 285 283 281 280 279 287 288 289 290 286 282 283 289 290 289 291 292 294 296 298 295 293 294 287 289
287 285 286 287 287 292 288 276 268 266 270 278 294 297 287 278 279 284 292 294 298 298 297 297 296 295 294 291 287 281 283 288 289 288 290 291 294 293 290 290 289 290 293 295 299 302 295 290 292
283 284 283 287 288 293 283 278 278 273 280 292 298 291 287 293 298 296 292 295 295 290 286 288 288 289 289 287 284 282 279 274 276 281 285 287 291 293 292 291 291 291 291 291 292 294 296 292 290
282 282 282 286 286 284 284 280 281 278 285 295 300 288 295 296 295 296 291 296 296 292 285 284 287 288 290 291 293 291 288 288 286 289 288 288 288 288 288 288 288 289 291 293 294 293 291 291 291
279 281 282 285 284 284 278 279 280 277 284 295 285 285 289 292 288 287 285 286 281 280 283 286 287 287 286 286 287 287 289 292 291 290 289 290 287 285 281 286 290 291 292 295 295 294 292 287 285
280 279 281 283 282 283 284 280 278 278 270 285 287 288 280 278 280 281 284 282 280 279 278 279 284 289 287 285 285 285 286 288 290 289 288 291 288 283 280 281 282 284 288 290 293 295 294 291 288
278 279 282 280 281 281 282 281 280 278 277 279 286 284 282 271 275 275 274 277 279 279 280 278 274 279 282 281 281 282 284 284 283 284 289 290 288 290 290 288 287 287 289 290 291 289 290 293 291
278 279 281 282 279 280 281 280 278 278 277 279 280 276 276 274 273 273 274 273 269 271 274 278 282 284 281 282 285 283 283 284 282 280 283 283 285 286 292 293 292 289 285 287 289 291 291 290 291
279 281 282 286 284 281 281 281 281 279 280 281 277 275 277 274 273 273 270 270 270 272 274 278 281 284 285 285 282 280 277 278 279 280 277 278 280 283 283 287 289 292 294 289 289 289 287 288 289
280 283 285 285 285 286 281 282 282 278 279 277 276 273 272 272 273 273 273 272 270 272 277 279 277 278 280 282 285 284 282 276 274 276 271 274 277 282 286 290 291 292 292 289 286 284 287 287 288
281 285 287 285 285 284 284 285 279 281 280 277 276 274 274 274 273 271 269 269 271 272 273 274 276 277 278 281 286 288 287 285 280 274 273 274 278 280 283 288 290 291 289 287 296 287 284 286 288
283 287 287 287 283 284 285 283 276 277 275 275 274 273 272 273 271 271 271 271 271 272 273 273 275 274 276 280 281 282 285 284 284 281 278 275 275 276 282 286 289 289 283 278 290 290 288 287 285
287 285 283 284 288 288 287 282 280 277 276 273 275 276 277 277 276 276 277 276 275 277 278 278 277 278 277 274 277 280 280 282 282 283 280 278 278 275 269 275 281 280 279 283 282 282 281 280 278
295 292 292 294 288 287 285 279 279 281 280 278 277 277 278 278 279 279 279 279 279 278 279 280 281 279 278 278 277 278 278 279 281 281 280 280 278 277 276 275 275 273 274 270 275 277 274 279 267
296 298 296 295 296 291 287 284 281 279 281 282 281 281 281 283 283 283 282 280 281 281 281 282 281 278 277 278 280 279 277 276 277 277 280 280 279 276 277 277 275 270 266 268 264 266 274 279 272
292 294 293 290 287 283 283 282 282 283 281 278 280 283 285 283 281 280 279 282 282 281 279 279 279 278 278 280 280 279 278 278 278 278 277 277 278 278 277 275 273 271 265 259 262 260 266 269 264
288 291 290 292 288 289 289 286 279 278 278 279 280 282 282 280 281 283 283 283 282 283 284 284 283 285 285 284 283 282 282 282 280 280 279 278 277 277 277 276 274 272 268 262 258 258 260 259 258
286 287 289 290 289 287 282 282 284 285 284 285 285 285 285 285 287 286 286 285 285 285 285 286 286 286 284 283 282 280 278 278 278 279 279 276 273 273 273 275 275 271 266 265 263 259 258 255 256
288 288 287 289 291 292 290 287 283 283 284 285 283 281 279 279 278 281 282 283 284 286 288 288 287 285 285 285 284 283 282 281 280 278 276 275 274 272 272 270 270 268 264 260 260 260 257 253 248
285 287 287 287 289 291 293 287 287 287 286 285 284 285 286 285 283 285 285 286 287 287 287 287 287 286 284 284 282 282 281 279 278 278 277 274 272 273 272 269 266 263 264 262 257 256 257 253 246
286 286 286 287 287 289 289 290 290 288 286 284 284 284 283 284 284 285 285 285 285 284 285 285 285 285 284 283 282 282 282 280 278 276 275 274 274 273 270 265 263 259 258 260 257 255 254 254 249
284 285 285 287 287 289 287 288 291 288 288 287 286 284 283 283 283 284 284 284 284 285 286 286 287 286 286 285 284 282 281 279 276 274 273 272 271 270 269 266 263 259 258 254 257 255 254 251 248
283 283 284 284 286 287 289 289 289 291 289 287 286 284 285 284 283 283 283 285 286 287 288 287 289 291 288 286 285 284 283 280 277 274 271 268 266 265 265 265 267 265 262 257 254 255 253 248 246
280 281 282 285 286 286 287 290 291 293 289 288 289 289 289 288 286 286 285 286 289 291 292 292 291 292 290 289 287 287 285 284 280 276 274 271 268 266 264 263 263 264 264 260 255 253 252 248 244
279 280 283 285 287 287 287 290 294 293 293 293 295 294 293 294 294 293 293 293 294 294 295 295 295 293 292 291 290 288 286 284 282 279 276 273 270 267 264 262 261 261 260 259 255 249 249 248 243
278 281 282 284 287 290 292 294 296 294 294 294 292 292 293 293 293 294 294 297 297 297 298 297 295 294 293 293 293 292 290 287 286 283 279 277 274 269 265 262 260 259 258 257 255 250 245 246 242
277 279 280 283 286 288 292 294 295 295 295 292 291 291 293 295 297 299 299 299 301 301 300 299 299 298 297 297 295 293 290 290 287 284 280 276 273 271 268 264 260 258 257 255 253 248 242 240 239
Height
10826 10826 10826 10826 10830 10836 10839 10841 10839 10837 10833 10826 10826 10829 10831 10830 10830 10831 10830 10823 10821 10821 10822 10822 10821 10819 10817 10814 10809 10807 10804 10800 10796 10794 10790 10788 10786 10784 10782 10780 10778 10776 10776 10774 10772 10771 10770 10769 10769
10817 10815 10817 10820 10823 10827 10828 10827 10830 10829 10825 10821 10817 10814 10816 10819 10820 10819 10819 10811 10809 10807 10808 10808 10808 10806 10804 10801 10797 10794 10791 10788 10785 10783 10781 10778 10777 10776 10774 10772 10770 10769 10768 10767 10767 10765 10764 10763 10763
10812 10812 10813 10814 10816 10816 10819 10821 10820 10818 10817 10811 10810 10810 10810 10808 10807 10803 10801 10802 10803 10800 10798 10796 10793 10790 10789 10788 10786 10783 10782 10780 10777 10775 10774 10772 10771 10768 10766 10765 10764 10763 10762 10761 10761 10761 10759 10758 10757
10807 10807 10808 10810 10812 10813 10811 10811 10811 10806 10803 10804 10802 10806 10803 10800 10798 10791 10790 10794 10796 10794 10792 10788 10784 10781 10780 10780 10780 10776 10775 10774 10770 10768 10767 10766 10765 10763 10761 10759 10758 10757 10756 10755 10755 10755 10754 10753 10752
10802 10800 10803 10806 10809 10807 10806 10804 10801 10799 10798 10800 10802 10799 10795 10790 10789 10791 10791 10788 10788 10787 10784 10781 10778 10775 10774 10773 10772 10770 10769 10768 10765 10763 10761 10760 10759 10758 10756 10754 10753 10751 10750 10750 10750 10749 10748 10747 10745
10795 10794 10798 10801 10802 10802 10799 10796 10794 10792 10795 10797 10797 10794 10789 10788 10787 10788 10782 10780 10778 10777 10775 10772 10770 10768 10767 10766 10765 10763 10762 10760 10758 10757 10756 10755 10754 10752 10751 10749 10747 10746 10744 10744 10743 10744 10743 10741 10739
10786 10787 10791 10796 10794 10795 10792 10790 10788 10787 10791 10790 10788 10786 10786 10782 10778 10781 10779 10775 10771 10769 10767 10766 10764 10763 10762 10761 10759 10757 10756 10755 10754 10752 10751 10749 10748 10746 10744 10743 10741 10740 10739 10737 10737 10738 10738 10735 10733
10779 10778 10783 10787 10788 10786 10785 10783 10783 10782 10783 10784 10783 10783 10784 10779 10771 10768 10769 10768 10766 10762 10758 10757 10757 10758 10756 10753 10752 10750 10749 10748 10747 10745 10744 10743 10742 10740 10738 10736 10735 10733 10733 10732 10731 10731 10731 10728 10727
10773 10770 10775 10779 10779 10778 10775 10776 10777 10777 10776 10774 10778 10780 10778 10774 10770 10763 10758 10757 10756 10753 10751 10749 10748 10749 10749 10748 10746 10744 10743 10741 10740 10738 10736 10733 10733 10732 10730 10729 10728 10725 10725 10725 10725 10725 10725 10723 10720
10767 10762 10767 10770 10769 10768 10768 10766 10766 10768 10768 10768 10773 10768 10768 10764 10762 10758 10755 10750 10746 10744 10740 10739 10742 10742 10740 10739 10739 10738 10737 10735 10733 10731 10729 10727 10724 10722 10721 10721 10721 10719 10718 10717 10718 10719 10719 10718 10715
10760 10756 10758 10760 10760 10758 10758 10759 10758 10757 10759 10762 10767 10760 10757 10753 10751 10747 10744 10741 10739 10736 10733 10729 10729 10730 10731 10732 10732 10731 10729 10727 10725 10723 10721 10718 10716 10716 10713 10710 10709 10709 10709 10708 10708 10709 10711 10712 10710
10753 10750 10750 10751 10750 10750 10746 10748 10748 10748 10750 10753 10753 10750 10748 10744 10739 10736 10732 10729 10728 10728 10726 10723 10720 10720 10719 10720 10720 10719 10719 10719 10717 10714 10711 10709 10708 10707 10706 10704 10700 10698 10699 10698 10698 10699 10699 10701 10701
10744 10743 10741 10740 10742 10742 10738 10738 10738 10737 10745 10742 10741 10740 10735 10731 10728 10723 10719 10718 10719 10720 10719 10717 10714 10711 10710 10709 10709 10708 10709 10709 10707 10707 10704 10703 10700 10697 10695 10694 10691 10689 10687 10687 10688 10688 10689 10690 10690
10735 10732 10729 10726 10731 10731 10730 10731 10728 10731 10732 10732 10729 10726 10724 10720 10716 10712 10708 10705 10707 10709 10710 10707 10704 10700 10697 10695 10696 10695 10695 10696 10697 10697 10695 10692 10691 10689 10687 10684 10681 10678 10674 10676 10678 10677 10678 10680 10678
10726 10722 10719 10718 10715 10716 10717 10720 10717 10722 10720 10719 10718 10716 10712 10707 10702 10699 10696 10694 10695 10696 10695 10695 10695 10692 10688 10684 10681 10680 10680 10680 10680 10679 10679 10680 10678 10679 10679 10674 10670 10667 10665 10663 10668 10665 10666 10668 10668
10713 10712 10710 10710 10707 10705 10705 10703 10704 10710 10709 10709 10708 10703 10700 10698 10693 10688 10683 10681 10682 10682 10681 10681 10680 10679 10678 10675 10670 10664 10663 10663 10663 10661 10659 10659 10660 10663 10665 10664 10661 10659 10659 10655 10658 10655 10654 10656 10658
10702 10701 10699 10698 10698 10696 10695 10692 10693 10695 10697 10698 10695 10691 10688 10686 10681 10677 10673 10669 10669 10667 10667 10666 10665 10664 10661 10658 10657 10655 10651 10646 10645 10643 10642 10640 10642 10642 10644 10647 10649 10646 10648 10647 10647 10645 10643 10646 10646
10691 10689 10687 10686 10685 10685 10684 10683 10684 10685 10685 10684 10681 10678 10674 10670 10667 10663 10659 10656 10654 10653 10651 10649 10647 10644 10643 10641 10639 10637 10635 10632 10630 10628 10623 10618 10618 10622 10623 10623 10627 10630 10630 10632 10633 10637 10634 10633 10636
10681 10678 10677 10678 10677 10676 10675 10672 10672 10672 10671 10671 10669 10667 10664 10659 10654 10649 10645 10641 10638 10635 10634 10634 10631 10626 10624 10623 10621 10616 10612 10610 10609 10607 10606 10604 10597 10595 10600 10603 10604 10606 10611 10616 10616 10619 10620 10622 10623
10670 10667 10663 10664 10664 10665 10663 10661 10663 10661 10658 10657 10656 10653 10648 10642 10639 10636 10632 10626 10620 10617 10615 10612 10609 10606 10604 10600 10597 10595 10590 10583 10581 10579 10578 10579 10580 10575 10573 10578 10581 10583 10589 10594 10597 10600 10604 10608 10611
10658 10655 10650 10649 10650 10653 10652 10651 10651 10648 10646 10643 10639 10636 10631 10627 10622 10616 10613 10609 10603 10597 10592 10588 10586 10582 10578 10575 10572 10568 10566 10563 10557 10551 10549 10548 10550 10552 10550 10549 10555 10558 10561 10568 10574 10578 10584 10590 10593
10646 10641 10638 10633 10631 10635 10634 10636 10635 10633 10631 10626 10623 10620 10617 10612 10606 10600 10595 10589 10583 10577 10572 10567 10563 10558 10554 10550 10545 10541 10538 10534 10529 10527 10522 10517 10516 10520 10523 10525 10526 10528 10535 10544 10550 10554 10562 10568 10576
10632 10628 10624 10622 10619 10618 10617 10608 10624 10615 10612 10603 10600 10596 10593 10586 10581 10578 10574 10569 10564 10559 10552 10545 10540 10535 10528 10522 10518 10514 10509 10505 10499 10492 10486 10483 10481 10481 10488 10493 10499 10502 10502 10513 10523 10530 10537 10545 10556
10614 10612 10609 10608 10604 10609 10601 10589 10613 10602 10594 10586 10582 10576 10572 10566 10561 10556 10552 10546 10539 10534 10529 10524 10516 10506 10498 10490 10483 10477 10472 10467 10462 10456 10453 10449 10446 10444 10447 10456 10463 10471 10478 10479 10491 10503 10513 10522 10530
10596 10594 10590 10592 10588 10590 10589 10581 10589 10585 10576 10568 10562 10556 10551 10546 10540 10533 10527 10520 10512 10508 10503 10494 10486 10475 10465 10457 10448 10438 10431 10427 10422 10417 10413 10411 10412 10411 10408 10411 10424 10434 10446 10454 10458 10473 10485 10495 10504
10581 10577 10572 10569 10574 10573 10571 10573 10571 10565 10557 10550 10544 10537 10531 10525 10518 10511 10502 10495 10488 10483 10472 10462 10454 10443 10428 10417 10405 10396 10388 10382 10378 10377 10376 10375 10372 10369 10374 10376 10379 10390 10407 10420 10431 10439 10453 10463 10474
10566 10562 10554 10550 10552 10551 10550 10554 10551 10546 10533 10527 10522 10516 10507 10500 10493 10487 10478 10471 10464 10455 10441 10432 10420 10405 10392 10382 10371 10360 10352 10347 10343 10340 10338 10337 10334 10341 10342 10343 10345 10349 10362 10379 10396 10407 10414 10429 10444
10542 10541 10538 10532 10525 10527 10531 10534 10529 10521 10506 10501 10496 10488 10477 10469 10463 10455 10447 10440 10432 10418 10407 10396 10384 10370 10360 10350 10339 10331 10323 10314 10310 10308 10304 10301 10301 10305 10308 10310 10312 10316 10321 10333 10355 10374 10380 10393 10412
10524 10526 10520 10511 10507 10503 10506 10518 10511 10498 10489 10485 10476 10465 10456 10447 10438 10430 10421 10410 10397 10385 10371 10360 10352 10342 10333 10324 10312 10302 10295 10288 10283 10279 10274 10273 10271 10271 10274 10278 10279 10285 10288 10296 10311 10332 10348 10359 10375
10510 10509 10502 10497 10492 10486 10482 10495 10484 10475 10471 10464 10453 10441 10433 10424 10413 10404 10393 10380 10365 10349 10339 10330 10321 10313 10306 10300 10290 10282 10274 10268 10261 10256 10254 10250 10246 10246 10248 10252 10254 10255 10259 10266 10278 10294 10314 10326 10340